This demonstration page uses our WeatherBlox Daily Observations layout. Learn more.

Left ArrowRight Arrow

Hourly Observations for May 7, 2019

Temp ( °F °C ) Dew Point ( °F °C ) Humidity (%) Winds ( mph kmh ) Pressure ( in mb ) Visibility ( mi km ) Precip ( " mm )
12:15 am 00:15 Clear 61 16 54 12 77 77 SSW 3 6 30.07 1018 10 16.0934 N/A
12:35 am 00:35 Clear 59 15 54 12 82 82 N N/A 30.07 1018 10 16.0934 N/A
12:55 am 00:55 Clear 59 15 54 12 82 82 N N/A 30.07 1018 10 16.0934 N/A
1:16 am 01:16 Clear 57 14 54 12 88 88 N N/A 30.08 1019 10 16.0934 N/A
1:35 am 01:35 Clear 55 13 54 12 94 94 N N/A 30.07 1018 10 16.0934 N/A
1:55 am 01:55 Clear 55 13 54 12 94 94 N N/A 30.07 1018 10 16.0934 N/A
2:15 am 02:15 Clear 54 12 54 12 100 100 N N/A 30.06 1018 10 16.0934 N/A
2:35 am 02:35 Clear 54 12 54 12 100 100 N N/A 30.06 1018 10 16.0934 N/A
2:56 am 02:56 Clear 52 11 52 11 100 100 N N/A 30.07 1018 10 16.0934 N/A
3:15 am 03:15 Clear 52 11 52 11 100 100 N N/A 30.07 1018 10 16.0934 N/A
3:35 am 03:35 Clear 52 11 52 11 100 100 N N/A 30.07 1018 10 16.0934 N/A
3:55 am 03:55 Clear 52 11 52 11 100 100 N N/A 30.07 1018 10 16.0934 N/A
4:15 am 04:15 Clear 50 10 50 10 100 100 N N/A 30.08 1019 10 16.0934 N/A
4:35 am 04:35 Clear 52 11 52 11 100 100 N N/A 30.08 1019 10 16.0934 N/A
4:55 am 04:55 Clear 50 10 50 10 100 100 N N/A 30.08 1019 10 16.0934 N/A
5:15 am 05:15 Clear 52 11 52 11 100 100 N N/A 30.09 1019 10 16.0934 N/A
5:35 am 05:35 Clear 48 9 48 9 100 100 N N/A 30.09 1019 10 16.0934 N/A
5:55 am 05:55 Clear 50 10 50 10 100 100 N N/A 30.1 1019 10 16.0934 N/A
6:16 am 06:16 Clear 48 9 48 9 100 100 N N/A 30.1 1019 10 16.0934 N/A
6:35 am 06:35 Clear 48 9 48 9 100 100 N N/A 30.1 1019 10 16.0934 N/A
6:55 am 06:55 Sunny 50 10 50 10 100 100 N N/A 30.11 1020 10 16.0934 N/A
7:15 am 07:15 Sunny 50 10 50 10 100 100 N N/A 30.13 1020 10 16.0934 N/A
7:35 am 07:35 Sunny 50 10 50 10 100 100 N N/A 30.14 1021 10 16.0934 N/A
7:56 am 07:56 Sunny 50 10 50 10 100 100 N N/A 30.14 1021 10 16.0934 N/A
8:15 am 08:15 Sunny 54 12 54 12 100 100 N N/A 30.13 1020 10 16.0934 N/A
8:35 am 08:35 Sunny 55 13 55 13 100 100 N 5 7 30.14 1021 10 16.0934 N/A
8:55 am 08:55 Sunny 57 14 57 14 100 100 N N/A 30.14 1021 10 16.0934 N/A
9:15 am 09:15 Sunny 59 15 57 14 94 94 N N/A 30.12 1020 10 16.0934 N/A
9:35 am 09:35 Sunny 64 18 59 15 83 83 N N/A 30.12 1020 10 16.0934 N/A
9:55 am 09:55 Sunny 66 19 59 15 78 78 N N/A 30.12 1020 10 16.0934 N/A
10:16 am 10:16 Mostly Cloudy 68 20 57 14 69 69 N N/A 30.12 1020 10 16.0934 N/A
10:35 am 10:35 Partly Cloudy 70 21 57 14 64 64 S 5 7 30.11 1019 10 16.0934 N/A
10:55 am 10:55 Sunny 72 22 59 15 65 65 SW 6 9 30.11 1020 10 16.0934 N/A
11:15 am 11:15 Mostly Cloudy 72 22 59 15 65 65 SSW 3 6 30.11 1020 10 16.0934 N/A
11:35 am 11:35 Cloudy 72 22 57 14 61 61 N N/A 30.11 1020 10 16.0934 N/A
11:55 am 11:55 Mostly Cloudy 73 23 59 15 61 61 WNW 3 6 30.11 1020 10 16.0934 N/A
12:15 pm 12:15 Sunny 73 23 59 15 61 61 SSE 6 9 30.1 1019 10 16.0934 N/A
12:35 pm 12:35 Partly Cloudy 73 23 59 15 61 61 N N/A 30.1 1019 10 16.0934 N/A
12:55 pm 12:55 Partly Cloudy 75 24 59 15 57 57 W 5 7 30.1 1019 10 16.0934 N/A
1:15 pm 13:15 Partly Cloudy 75 24 59 15 57 57 SSW 8 13 30.09 1019 10 16.0934 N/A
1:35 pm 13:35 Partly Cloudy 73 23 57 14 57 57 N N/A 30.09 1019 10 16.0934 N/A
1:55 pm 13:55 Partly Cloudy 75 24 57 14 54 54 NE 5 7 30.08 1018 10 16.0934 N/A
2:15 pm 14:15 Mostly Cloudy 77 25 57 14 51 51 W 6 9 30.07 1018 10 16.0934 N/A
2:35 pm 14:35 Mostly Cloudy 77 25 57 14 51 51 W 6 9 30.07 1018 10 16.0934 N/A
2:55 pm 14:55 Mostly Cloudy 77 25 57 14 51 51 SSW 7 11 30.07 1018 10 16.0934 N/A
3:16 pm 15:16 Cloudy 75 24 55 13 50 50 S 7 11 30.08 1018 10 16.0934 N/A
3:35 pm 15:35 Cloudy 73 23 57 14 57 57 N N/A 30.08 1019 10 16.0934 N/A
3:55 pm 15:55 Cloudy 73 23 57 14 57 57 W 7 11 30.08 1019 10 16.0934 N/A
4:15 pm 16:15 Cloudy 72 22 57 14 61 61 W 7 11 30.08 1019 10 16.0934 N/A
4:35 pm 16:35 Cloudy 72 22 57 14 61 61 WNW 8 13 30.08 1019 10 16.0934 N/A
4:55 pm 16:55 Cloudy 72 22 59 15 65 65 NNW 10 17 30.09 1019 10 16.0934 N/A
5:15 pm 17:15 Cloudy 70 21 63 17 78 78 N 8 13 30.09 1019 10 16.0934 N/A
5:35 pm 17:35 Cloudy 70 21 63 17 78 78 N 10 17 30.09 1019 10 16.0934 N/A
5:55 pm 17:55 Cloudy 72 22 63 17 73 73 NNE 12 19 30.08 1019 10 16.0934 N/A
6:15 pm 18:15 Mostly Cloudy 70 21 63 17 78 78 NE 13 20 30.08 1018 10 16.0934 N/A
6:35 pm 18:35 Partly Cloudy 70 21 63 17 78 78 NNE 13 20 30.08 1018 10 16.0934 N/A
6:55 pm 18:55 Partly Cloudy 70 21 61 16 73 73 NNE 14 22 30.09 1019 10 16.0934 N/A
7:15 pm 19:15 Mostly Cloudy 68 20 61 16 78 78 NNE 12 19 30.09 1019 10 16.0934 N/A
7:35 pm 19:35 Cloudy 68 20 61 16 78 78 NE 13 20 30.09 1019 10 16.0934 N/A
7:55 pm 19:55 Partly Cloudy 64 18 59 15 83 83 NE 16 26 30.09 1019 10 16.0934 N/A
8:15 pm 20:15 Sunny 63 17 59 15 88 88 NNE 13 20 30.11 1020 10 16.0934 N/A
8:35 pm 20:35 Sunny 61 16 57 14 88 88 NE 15 24 30.12 1020 10 16.0934 N/A
8:55 pm 20:55 Clear 59 15 55 13 88 88 NE 13 20 30.13 1020 10 16.0934 N/A
9:16 pm 21:16 Clear 59 15 55 13 88 88 NE 10 17 30.12 1020 10 16.0934 N/A
9:35 pm 21:35 Clear 59 15 55 13 88 88 NE 9 15 30.12 1020 10 16.0934 N/A
9:55 pm 21:55 Mostly Cloudy 57 14 55 13 94 94 NE 10 17 30.14 1021 10 16.0934 N/A
10:15 pm 22:15 Cloudy 57 14 54 12 88 88 NE 9 15 30.14 1021 10 16.0934 N/A
10:35 pm 22:35 Partly Cloudy 57 14 54 12 88 88 NE 10 17 30.16 1021 10 16.0934 N/A
10:55 pm 22:55 Clear 55 13 54 12 94 94 NE 8 13 30.16 1021 10 16.0934 N/A
11:15 pm 23:15 Mostly Cloudy 55 13 54 12 94 94 NE 9 15 30.16 1021 10 16.0934 N/A
11:35 pm 23:35 Mostly Cloudy 55 13 54 12 94 94 NE 10 17 30.16 1021 10 16.0934 N/A
11:55 pm 23:55 Partly Cloudy 55 13 54 12 94 94 NE 12 19 30.16 1021 10 16.0934 N/A

Powered by AerisWeather